Regional Weather Roundup
Issued by NWS Goodland, KS

Home | Current Version | Previous Version | Graphics & Text | Print | Product List | Glossary On
Versions: 1 2 3 4 5 6 7 8 9 10 11 12 13 14 15 16 17 18 19 20 21 22 23 24 25 26 27 28 29 30 31 32 33 34 35 36 37 38 39 40 41 42 43 44 45 46 47 48 49 50
000
ASUS43 KGLD 192208
RWRGLD

GOODLAND FORECAST AREA HOURLY WEATHER ROUNDUP
NATIONAL WEATHER SERVICE GOODLAND KS
400 PM MDT FRI SEP 19 2014

...OFFICIAL OBSERVATIONS...

CITY           SKY/WX    TMP DP  RH WIND       PRES   REMARKS
GOODLAND KS    MOSUNNY   88  57  34 S18G26    29.88F
HILL CITY KS   SUNNY     91  58  32 S18G25    29.85F
IMPERIAL NEB   SUNNY     92  50  23 S15       29.82F
MCCOOK NEB     SUNNY     92  57  30 S20G28    29.81S
AKRON CO       SUNNY     89  42  19 N12       29.91F
BURLINGTON CO  SUNNY     89  48  24 SW15      29.90F
LIMON CO       SUNNY     88  37  16 E7        29.97F
$$

...UNOFFICIAL OBSERVATIONS...

CITY           SKY/WX    TMP DP  RH WIND       PRES   REMARKS
COLBY KS       MOSUNNY   90  63  40 S21G28    29.87F
GOVE KS          N/A     89  32  13 MISG        N/A
NORTON KS      SUNNY     91  52  25 S20G28    29.82F
SHARON SPRINGS   N/A     87  61  41 S15G26      N/A
WAKEENEY KS      N/A     90  52  27 MISG        N/A
TRENTON NEB      N/A     92  32  12 SW14        N/A
KIT CARSON CO    N/A     88  50  26 CALM        N/A
YUMA CO          N/A     92  45  19 CALM        N/A
$$



USA.gov is the U.S. government's official web portal to all federal, state and local government web resources and services.